カタログに戻る

THORAD AGENA D DEB

運用中LEO
NORAD 4819·DEBRIS·🇺🇸 United States

打ち上げ Apr 8, 1970 から Vandenberg Space Force Base

Loading…

次のパス

TLE

Source: Space-Track
1 04819U 70025EA  26229.54344467  .00003106  00000-0  10079-2 0  9993
2 04819 100.1026 261.0449 0031202  99.7420 260.7289 14.39529246852991

AllMySatでTHORAD AGENA D DEBをリアルタイム追跡

Download on the App Store